[[{"header":{"parameterUnit":"m.s-1","parameterCategory":1,"la1":30.2991,"la2":30.254,"lo1":-89.0895,"lo2":-89.0444,"dy":0.0017,"dx":0.0017,"nx":28,"ny":28,"refTime":"2024-05-06T21:00:00:Z","depth":0,"parameterNumber":2,"parameterNumberName":"U-component_of_WINDS"},"data":[0,0,0,0,0,0,0,0,0,0,0,0,0,0,0,0,0,0,0,0,0,0,0,0,0,0,0,0,0,0,0,0,0,0,0,0,0,0,0,0,0,0,0,0,0,0,0,0,0,0,0,0,0,0,0,0,0,0,0.0213,0.0213,0,0.0205,0.0205,0.0204,0.0202,0.0202,0.0202,0.0202,0.0192,0.0192,0.0192,0,0,0,0,0,0,0,0,0,0,0,0,0,0.0222,0.0222,0.0213,0.0213,0.0212,0.0205,0.0205,0.0204,0.0202,0.0202,0.0202,0.0202,0.0192,0.0192,0.0192,0,0,0,0,0,0,0,0,0,0,0,0,0,0.0217,0.0222,0.0213,0.021,0.021,0.0205,0.0205,0.0204,0.0202,0.0202,0.0202,0.0202,0.0193,0.0192,0.0192,0.0188,0,0,0.019,0.019,0,0,0,0,0,0,0,0,0.0217,0.0216,0.0211,0.021,0.021,0.0204,0.0205,0.0199,0.0202,0.0205,0.0202,0.0202,0.0196,0.0195,0.0194,0.0188,0.0187,0.019,0.019,0.019,0.019,0,0,0,0,0,0,0,0.0217,0.0217,0.0209,0.021,0.021,0.0208,0.0208,0.0204,0.02,0.0204,0.0204,0.0203,0.0196,0.0194,0.0194,0.0187,0.019,0.019,0.019,0.019,0.0175,0.0175,0,0,0,0,0,0,0.0219,0.0217,0.021,0.0209,0.0214,0.0208,0.0207,0.0206,0.02,0.0199,0.0203,0.0203,0.0195,0.0194,0.0193,0.0187,0.019,0.019,0.0189,0.0175,0.0175,0.0175,0,0,0,0,0,0,0.0219,0.0218,0.021,0.0213,0.0212,0.0208,0.0206,0.0206,0.0204,0.0199,0.0199,0.0202,0.0195,0.0194,0.0189,0.0187,0.0189,0.0189,0.0175,0.0175,0.0175,0.0176,0,0,0,0,0,0,0.0219,0.0218,0.0218,0.0213,0.0212,0.0207,0.0206,0.0206,0.0203,0.0203,0.0198,0.0197,0.0195,0.019,0.0189,0.0186,0.0189,0.0176,0.0175,0.0175,0.0176,0.0176,0.0175,0,0,0,0,0,0.0219,0.0218,0.0218,0.0217,0.0211,0.0207,0.0206,0.0203,0.0203,0.0202,0.0199,0.0198,0.0187,0.0189,0.0188,0.0185,0.0176,0.0175,0.0175,0.0176,0.0176,0.0175,0,0,0,0,0,0,0.0223,0.0218,0.0217,0.0215,0.0211,0.0206,0.0205,0.0203,0.02,0.02,0.0196,0.0195,0.019,0.0187,0.0189,0.018,0.0181,0.0181,0.0182,0.0182,0.0182,0.0182,0.0188,0,0,0,0,0,0.0223,0.0221,0.0216,0.0215,0.0213,0.0209,0.0207,0.0205,0.0201,0.02,0.0196,0.0192,0.0187,0.0185,0.018,0.0175,0.0173,0.0173,0.0173,0.0172,0.0172,0.0167,0.0166,0.0174,0.0174,0.0174,0,0,0.0224,0.0221,0.022,0.0215,0.0212,0.0209,0.0208,0.0205,0.0201,0.0199,0.0194,0.0191,0.0186,0.018,0.0178,0.0178,0.0169,0.0172,0.0172,0.0171,0.0166,0.0166,0.0165,0.0174,0.0174,0.0174,0,0,0.0224,0.0222,0.022,0.0216,0.0212,0.0209,0.0208,0.0203,0.0201,0.0196,0.0193,0.0189,0.0182,0.0177,0.0174,0.017,0.0168,0.0169,0.0167,0.0162,0.0161,0.0161,0.0157,0.0157,0.0168,0.0168,0.0168,0,0.0226,0.0221,0.0218,0.0215,0.0212,0.0209,0.0205,0.0202,0.0196,0.0194,0.0194,0.0183,0.018,0.0172,0.0171,0.0169,0.0167,0.0169,0.0162,0.0161,0.016,0.0157,0.0156,0.0168,0.0168,0.0168,0.0168,0,0.0223,0.0219,0.0217,0.0211,0.0208,0.0204,0.02,0.0197,0.0194,0.0191,0.0184,0.018,0.0173,0.0172,0.017,0.0163,0.0163,0.0163,0.0163,0.016,0.0157,0.0155,0.0168,0.0168,0.0168,0.0168,0,0,0.0226,0.0217,0.0216,0.0212,0.0206,0.0202,0.0197,0.0191,0.0188,0.0183,0.0178,0.0171,0.017,0.0166,0.0164,0.016,0.0154,0.0159,0.0159,0.0157,0.0144,0.0143,0.0142,0.0153,0.0152,0.0152,0.0144,0,0.0224,0.0216,0.0212,0.0205,0.02,0.0197,0.0192,0.0187,0.0183,0.0178,0.0173,0.0167,0.0168,0.0165,0.0161,0.0155,0.0151,0.0156,0.0146,0.0146,0.0147,0.0141,0.0141,0.0133,0.0142,0.0142,0.0142,0,0.0221,0.0216,0.0208,0.02,0.0198,0.0194,0.0187,0.0182,0.0175,0.0173,0.0168,0.0165,0.0158,0.0159,0.0148,0.0152,0.0147,0.0144,0.0144,0.0142,0.0144,0.0138,0.0131,0.0129,0.0141,0.0141,0.0141,0,0.0222,0.0213,0.0207,0.0204,0.0195,0.0192,0.0188,0.0181,0.0177,0.017,0.0167,0.0159,0.0155,0.0149,0.0143,0.0145,0.0132,0.0134,0.0129,0.0129,0.0126,0.0126,0.0117,0.0125,0.0125,0.0125,0.0125,0,0.022,0.0215,0.0207,0.0203,0.0197,0.0192,0.0185,0.0181,0.0174,0.0168,0.0165,0.0159,0.0152,0.0145,0.0141,0.0132,0.013,0.0127,0.0125,0.0126,0.0127,0.0123,0.0123,0.0125,0.0125,0.0125,0.0125,0,0.022,0.0215,0.0207,0.0199,0.0196,0.0192,0.0184,0.0179,0.0174,0.0167,0.0165,0.0157,0.0148,0.0142,0.0131,0.0128,0.0117,0.0117,0.012,0.0119,0.0114,0.0114,0.0101,0.0098,0.0109,0.0109,0.0109,0,0.0219,0.0215,0.0205,0.0201,0.0197,0.019,0.0185,0.0179,0.0174,0.0165,0.0161,0.0152,0.0144,0.013,0.0123,0.0114,0.0112,0.0108,0.0111,0.0111,0.011,0.011,0.0109,0.0108,0.0108,0.0108,0.0108,0,0.0217,0.0213,0.0207,0.0199,0.0193,0.0186,0.018,0.0176,0.0168,0.0163,0.0154,0.0148,0.0135,0.0126,0.0116,0.011,0.0107,0.0107,0.0105,0.0106,0.0107,0.0105,0.0117,0.0107,0.0107,0.0107,0.0107,0.0107,0.0215,0.0211,0.0203,0.0195,0.0189,0.0182,0.0176,0.017,0.0162,0.0152,0.0149,0.0139,0.013,0.0115,0.011,0.0101,0.0101,0.0099,0.0098,0.0097,0.0096,0.0109,0.0099,0.0099,0.0099,0.0099,0.0099,0,0.0211,0.0206,0.0198,0.0188,0.0182,0.0179,0.0171,0.0165,0.0156,0.0148,0.014,0.0128,0.0119,0.011,0.0099,0.0094,0.0092,0.0091,0.0091,0.0089,0.0098,0.01,0.0092,0.0092,0.0092,0.0092,0.0092,0.0092,0.0209,0.02,0.0196,0.0183,0.0177,0.0167,0.0162,0.0155,0.0149,0.0136,0.0127,0.0121,0.0112,0.01,0.0091,0.0088,0.0084,0.0083,0.008,0.0088,0.0089,0.0089,0.0091,0.0082,0.0082,0.0072,0.0072,0.0072]},{"header":{"parameterUnit":"m.s-1","parameterCategory":1,"la1":30.2991,"la2":30.254,"lo1":-89.0895,"lo2":-89.0444,"dy":0.0017,"dx":0.0017,"nx":28,"ny":28,"refTime":"2024-05-06T21:00:00:Z","depth":0,"parameterNumber":3,"parameterNumberName":"V-component_of_WINDS"},"data":[0,0,0,0,0,0,0,0,0,0,0,0,0,0,0,0,0,0,0,0,0,0,0,0,0,0,0,0,0,0,0,0,0,0,0,0,0,0,0,0,0,0,0,0,0,0,0,0,0,0,0,0,0,0,0,0,0,0,6.7338,6.7339,0,6.7405,6.7405,6.7406,6.7356,6.7354,6.7352,6.735,6.7411,6.7414,6.7418,0,0,0,0,0,0,0,0,0,0,0,0,0,6.7161,6.7165,6.7338,6.7339,6.734,6.7404,6.7405,6.7406,6.7357,6.7354,6.7351,6.7349,6.741,6.7414,6.7418,0,0,0,0,0,0,0,0,0,0,0,0,0,6.7234,6.7166,6.7338,6.7323,6.7323,6.7404,6.7405,6.7406,6.7357,6.7354,6.7351,6.7348,6.7408,6.7414,6.7419,6.7517,0,0,6.7436,6.7438,0,0,0,0,0,0,0,0,6.7229,6.724,6.7325,6.7324,6.7324,6.7369,6.7365,6.7443,6.7358,6.7344,6.735,6.7346,6.7399,6.7405,6.7424,6.752,6.7523,6.7436,6.7439,6.7442,6.7443,0,0,0,0,0,0,0,6.7225,6.7237,6.7364,6.7326,6.7325,6.731,6.7317,6.738,6.7388,6.7345,6.7341,6.735,6.7398,6.7419,6.7425,6.7523,6.7436,6.7441,6.7444,6.7446,6.77,6.7703,0,0,0,0,0,0,6.7222,6.7233,6.7362,6.7366,6.7268,6.7316,6.7324,6.7358,6.7388,6.7389,6.7353,6.7348,6.7412,6.7419,6.7427,6.7543,6.7442,6.7447,6.745,6.7697,6.7701,6.7704,0,0,0,0,0,0,6.7218,6.7234,6.736,6.7299,6.7314,6.7323,6.7361,6.7361,6.7382,6.7394,6.7394,6.7373,6.7409,6.742,6.7495,6.7544,6.7449,6.7454,6.7692,6.7698,6.7703,6.7775,0,0,0,0,0,0,6.7214,6.7233,6.7272,6.73,6.7317,6.7429,6.7364,6.7364,6.7392,6.7386,6.7413,6.7415,6.7408,6.7487,6.75,6.755,6.7458,6.7688,6.7695,6.7701,6.7768,6.7782,6.7794,0,0,0,0,0,6.7207,6.7289,6.7275,6.7291,6.7367,6.7432,6.7441,6.7433,6.7396,6.7434,6.7442,6.7414,6.7537,6.7495,6.751,6.7562,6.7685,6.7693,6.77,6.7762,6.7779,6.7793,0,0,0,0,0,0,6.7265,6.7293,6.7277,6.7371,6.74,6.7423,6.7471,6.7452,6.749,6.7482,6.7469,6.7475,6.7554,6.7565,6.7519,6.7657,6.7605,6.7616,6.7647,6.7663,6.7675,6.767,6.7463,0,0,0,0,0,6.7289,6.7342,6.7362,6.7442,6.7458,6.7462,6.749,6.7482,6.751,6.7521,6.7534,6.7561,6.7605,6.7635,6.7676,6.777,6.7773,6.7812,6.7825,6.7835,6.7845,6.7892,6.7909,6.773,6.773,6.773,0,0,6.7338,6.736,6.7393,6.7454,6.7476,6.7528,6.7473,6.7531,6.7568,6.7529,6.7601,6.7612,6.764,6.7725,6.7762,6.7736,6.7895,6.7845,6.7854,6.7857,6.7902,6.7919,6.7934,6.7735,6.7735,6.7734,0,0,6.7454,6.7477,6.7546,6.7569,6.7602,6.7604,6.7621,6.7648,6.7654,6.7726,6.7698,6.7741,6.7818,6.7839,6.786,6.7983,6.7958,6.7997,6.8063,6.811,6.8124,6.8136,6.8178,6.8194,6.8006,6.8006,6.8007,0,6.751,6.759,6.7583,6.7643,6.7669,6.7639,6.7706,6.7728,6.7772,6.779,6.7761,6.7857,6.7874,6.7962,6.7992,6.801,6.8026,6.7993,6.8123,6.8135,6.8147,6.8186,6.8202,6.8011,6.801,6.801,6.8009,0,6.7657,6.7712,6.7763,6.7809,6.7841,6.7905,6.7905,6.7938,6.7926,6.793,6.8003,6.8023,6.8067,6.8087,6.8076,6.8173,6.8156,6.8125,6.8072,6.8168,6.8205,6.8221,6.8017,6.8016,6.8014,6.8013,0,0,6.7811,6.7852,6.787,6.789,6.7924,6.7966,6.8026,6.8072,6.8099,6.8131,6.8179,6.8245,6.8217,6.8241,6.8231,6.8273,6.8366,6.8237,6.8237,6.8259,6.8472,6.8493,6.8511,6.835,6.8353,6.8355,6.8469,0,6.7927,6.8036,6.8031,6.8131,6.8181,6.8152,6.8204,6.8229,6.8235,6.8275,6.828,6.8327,6.8287,6.8301,6.8341,6.8347,6.8409,6.8339,6.8393,6.8395,6.8386,6.8531,6.8555,6.8661,6.8483,6.8486,6.8488,0,6.8078,6.8117,6.8223,6.8248,6.8269,6.8317,6.8356,6.8397,6.8423,6.8424,6.8451,6.8434,6.8492,6.8439,6.8518,6.8471,6.8492,6.8499,6.8502,6.8506,6.8446,6.8537,6.8694,6.871,6.8511,6.8509,6.8507,0,6.8178,6.8256,6.8329,6.8347,6.8379,6.8412,6.8427,6.8451,6.8478,6.8512,6.8528,6.8568,6.859,6.862,6.8613,6.8576,6.8693,6.864,6.8693,6.8694,6.8718,6.8717,6.888,6.8735,6.8735,6.8735,6.8735,0,6.8308,6.8373,6.8374,6.8419,6.849,6.8482,6.8552,6.8562,6.8584,6.8628,6.8604,6.8646,6.8636,6.8676,6.8671,6.8736,6.8746,6.8746,6.8744,6.8748,6.8748,6.8761,6.8753,6.8739,6.8738,6.8737,6.8737,0,6.8431,6.8434,6.8512,6.8536,6.8543,6.8595,6.8614,6.8655,6.8658,6.8714,6.8727,6.8731,6.8777,6.8774,6.8826,6.8823,6.8902,6.8892,6.8894,6.8891,6.8944,6.8939,6.912,6.9143,6.8985,6.8987,6.8988,0,6.8513,6.8563,6.8593,6.8622,6.8639,6.8685,6.8713,6.8706,6.8735,6.8769,6.8805,6.8849,6.8884,6.8959,6.8965,6.9004,6.8993,6.9055,6.8999,6.9001,6.8992,6.8989,6.8993,6.9065,6.9067,6.9068,6.9069,0,6.8658,6.8657,6.8699,6.8741,6.8775,6.8807,6.8837,6.8861,6.8857,6.889,6.8938,6.8966,6.9019,6.9062,6.9099,6.9111,6.9089,6.9087,6.9101,6.9105,6.9103,6.9103,6.8922,6.9083,6.9081,6.908,6.908,6.9079,6.8762,6.8804,6.8831,6.8878,6.89,6.8928,6.8967,6.8976,6.9016,6.906,6.9053,6.9106,6.9129,6.9176,6.9192,6.9231,6.9209,6.923,6.9235,6.924,6.9245,6.9098,6.9238,6.9238,6.9238,6.9237,6.9237,0,6.8904,6.892,6.8963,6.9006,6.9042,6.902,6.9051,6.9082,6.913,6.9154,6.919,6.9243,6.9285,6.9295,6.9334,6.9364,6.9355,6.9374,6.9371,6.9374,6.9264,6.9247,6.9381,6.9381,6.9381,6.9381,6.9381,6.9381,6.8982,6.9052,6.9054,6.9133,6.9147,6.9201,6.922,6.9245,6.9264,6.9326,6.9361,6.9368,6.9386,6.9426,6.9462,6.9464,6.9479,6.9502,6.9499,6.9396,6.9382,6.9368,6.9352,6.9506,6.9506,6.9606,6.9607,6.9607]}]]